When you browse on this site, cookies collect data to enhance your experience and personalize the content and advertising you see.
Visit our Privacy Policy to learn more. By continuing to use the site, you agree to this use of cookies and data.
  • In United Kingdom
  • List of Countries
  • For 7 days
  • Water Temperature
  • Satellite Maps
  • Weather Map
  • Weather Widgets
  • user-avatar
    Login

    Hourly Weather Ovsyuky

    Today, 21 June, Friday

    Time Temperature Precipitation Wind Pressure Humidity
    00:00 +20°C° 0 mm 2 mps 752 mmHg 82%
    01:00 +20°C° 0 mm 2 mps 752 mmHg 82%
    02:00 +19°C° 0 mm 2 mps 752 mmHg 83%
    03:00 +19°C° 0 mm 2 mps 753 mmHg 83%
    04:00 +19°C° 0 mm 2 mps 753 mmHg 84%
    05:00 +19°C° 0 mm 2 mps 753 mmHg 84%
    06:00 +21°C° 0 mm 2 mps 753 mmHg 80%
    07:00 +24°C° 0 mm 3 mps 753 mmHg 76%
    08:00 +26°C° 0 mm 3 mps 753 mmHg 71%
    09:00 +27°C° 0 mm 3 mps 753 mmHg 66%
    10:00 +28°C° 0 mm 3 mps 753 mmHg 60%
    11:00 +29°C° 0 mm 3 mps 753 mmHg 54%
    12:00 +30°C° 0 mm 3 mps 753 mmHg 53%
    13:00 +30°C° 0 mm 3 mps 753 mmHg 51%
    14:00 +30°C° 0 mm 3 mps 753 mmHg 50%
    15:00 +30°C° 0 mm 3 mps 753 mmHg 51%
    16:00 +30°C° 0 mm 2 mps 752 mmHg 53%
    17:00 +30°C° 0 mm 2 mps 752 mmHg 54%
    18:00 +28°C° 0 mm 2 mps 752 mmHg 57%
    19:00 +26°C° 0 mm 2 mps 752 mmHg 60%
    20:00 +24°C° 0 mm 2 mps 753 mmHg 62%
    21:00 +24°C° 0 mm 2 mps 753 mmHg 64%
    22:00 +23°C° 0 mm 2 mps 753 mmHg 66%
    23:00 +21°C° 0 mm 2 mps 753 mmHg 68%

    Tomorrow, 22 June, Saturday

    Time Temperature Precipitation Wind Pressure Humidity
    00:00 +21°C° 0 mm 2 mps 753 mmHg 69%
    01:00 +20°C° 0 mm 2 mps 753 mmHg 71%
    02:00 +20°C° 0 mm 2 mps 753 mmHg 73%
    03:00 +20°C° 0 mm 2 mps 753 mmHg 75%
    04:00 +20°C° 0 mm 2 mps 753 mmHg 78%
    05:00 +21°C° 0 mm 1 mps 753 mmHg 81%
    06:00 +23°C° 0 mm 2 mps 753 mmHg 75%
    07:00 +25°C° 0 mm 2 mps 754 mmHg 70%
    08:00 +27°C° 0 mm 2 mps 754 mmHg 65%
    09:00 +27°C° 0 mm 2 mps 754 mmHg 64%
    10:00 +28°C° 0 mm 2 mps 754 mmHg 63%
    11:00 +28°C° 0 mm 2 mps 754 mmHg 62%
    12:00 +30°C° 0 mm 2 mps 754 mmHg 56%
    13:00 +31°C° 0 mm 2 mps 754 mmHg 50%
    14:00 +32°C° 0 mm 2 mps 753 mmHg 44%
    15:00 +31°C° 0 mm 2 mps 753 mmHg 48%
    16:00 +31°C° 0 mm 2 mps 753 mmHg 51%
    17:00 +30°C° 0 mm 1 mps 753 mmHg 55%
    18:00 +29°C° 0 mm 1 mps 753 mmHg 57%
    19:00 +27°C° 0 mm 1 mps 753 mmHg 59%
    20:00 +26°C° 0 mm 1 mps 753 mmHg 61%
    21:00 +25°C° 0 mm 1 mps 754 mmHg 63%
    22:00 +24°C° 0 mm 1 mps 754 mmHg 66%
    23:00 +24°C° 0 mm 2 mps 754 mmHg 69%

    Day after tomorrow, 23 June, Sunday

    Time Temperature Precipitation Wind Pressure Humidity
    00:00 +23°C° 0 mm 2 mps 754 mmHg 69%
    01:00 +23°C° 0 mm 2 mps 754 mmHg 69%
    02:00 +21°C° 0 mm 2 mps 754 mmHg 69%
    03:00 +21°C° 0 mm 2 mps 754 mmHg 71%
    04:00 +21°C° 0 mm 2 mps 754 mmHg 72%
    05:00 +21°C° 0 mm 2 mps 754 mmHg 73%
    06:00 +23°C° 0 mm 2 mps 754 mmHg 69%
    07:00 +25°C° 0 mm 2 mps 754 mmHg 66%
    08:00 +27°C° 0 mm 2 mps 754 mmHg 62%
    09:00 +28°C° 0 mm 2 mps 754 mmHg 57%
    10:00 +29°C° 0 mm 3 mps 754 mmHg 53%
    11:00 +31°C° 0 mm 3 mps 754 mmHg 48%
    12:00 +31°C° 0 mm 3 mps 754 mmHg 47%
    13:00 +31°C° 0 mm 3 mps 754 mmHg 46%
    14:00 +31°C° 0 mm 3 mps 754 mmHg 45%
    15:00 +31°C° 0 mm 3 mps 754 mmHg 50%
    16:00 +30°C° 0 mm 3 mps 754 mmHg 54%
    17:00 +30°C° 0 mm 3 mps 753 mmHg 59%
    18:00 +28°C° 0 mm 2 mps 754 mmHg 62%
    19:00 +27°C° 0 mm 2 mps 754 mmHg 65%
    20:00 +25°C° 0 mm 2 mps 754 mmHg 68%
    21:00 +24°C° 0.1 mm 2 mps 754 mmHg 72%
    22:00 +23°C° 0.1 mm 2 mps 754 mmHg 75%
    23:00 +21°C° 0.1 mm 2 mps 754 mmHg 78%

    24 June, Monday

    Time Temperature Precipitation Wind Pressure Humidity
    00:00 +21°C° 0 mm 2 mps 754 mmHg 80%
    01:00 +20°C° 0 mm 2 mps 754 mmHg 82%
    02:00 +21°C° 0 mm 1 mps 755 mmHg 83%
    03:00 +20°C° 0 mm 2 mps 755 mmHg 84%
    04:00 +20°C° 0 mm 2 mps 755 mmHg 84%
    05:00 +20°C° 0 mm 2 mps 755 mmHg 84%
    06:00 +23°C° 0 mm 2 mps 755 mmHg 80%
    07:00 +25°C° 0 mm 3 mps 755 mmHg 75%
    08:00 +26°C° 0 mm 3 mps 756 mmHg 71%
    09:00 +28°C° 0 mm 3 mps 756 mmHg 66%
    10:00 +29°C° 0 mm 3 mps 756 mmHg 60%
    11:00 +30°C° 0 mm 3 mps 756 mmHg 55%
    12:00 +30°C° 0 mm 3 mps 756 mmHg 53%
    13:00 +31°C° 0 mm 3 mps 756 mmHg 51%
    14:00 +31°C° 0 mm 3 mps 756 mmHg 49%
    15:00 +30°C° 0.1 mm 3 mps 756 mmHg 56%
    16:00 +29°C° 0.1 mm 4 mps 756 mmHg 62%
    17:00 +28°C° 0.1 mm 4 mps 756 mmHg 69%
    18:00 +27°C° 0.3 mm 4 mps 756 mmHg 75%
    19:00 +25°C° 0.3 mm 3 mps 756 mmHg 81%
    20:00 +24°C° 0.3 mm 3 mps 756 mmHg 87%
    21:00 +22°C° 0.1 mm 3 mps 756 mmHg 89%
    22:00 +22°C° 0.1 mm 4 mps 757 mmHg 91%
    23:00 +21°C° 0.1 mm 4 mps 757 mmHg 93%

    25 June, Tuesday

    Time Temperature Precipitation Wind Pressure Humidity
    00:00 +20°C° 0 mm 4 mps 757 mmHg 92%
    01:00 +20°C° 0 mm 4 mps 758 mmHg 91%
    02:00 +19°C° 0 mm 4 mps 758 mmHg 91%
    03:00 +19°C° 0 mm 4 mps 758 mmHg 89%
    04:00 +18°C° 0 mm 4 mps 758 mmHg 88%
    05:00 +18°C° 0 mm 4 mps 758 mmHg 86%
    06:00 +19°C° 0 mm 4 mps 758 mmHg 81%
    07:00 +20°C° 0 mm 5 mps 759 mmHg 75%
    08:00 +22°C° 0 mm 5 mps 759 mmHg 70%
    09:00 +23°C° 0 mm 5 mps 759 mmHg 65%
    10:00 +25°C° 0 mm 5 mps 759 mmHg 61%
    11:00 +26°C° 0 mm 5 mps 759 mmHg 56%
    12:00 +27°C° 0 mm 5 mps 759 mmHg 55%
    13:00 +27°C° 0 mm 5 mps 759 mmHg 54%
    14:00 +27°C° 0 mm 5 mps 759 mmHg 53%
    15:00 +27°C° 0 mm 5 mps 759 mmHg 55%
    16:00 +27°C° 0 mm 4 mps 758 mmHg 57%
    17:00 +26°C° 0 mm 4 mps 758 mmHg 59%
    18:00 +25°C° 0 mm 4 mps 758 mmHg 65%
    19:00 +22°C° 0 mm 4 mps 758 mmHg 71%
    20:00 +20°C° 0 mm 3 mps 759 mmHg 78%
    21:00 +19°C° 0 mm 3 mps 759 mmHg 79%
    22:00 +18°C° 0 mm 3 mps 759 mmHg 80%
    23:00 +17°C° 0 mm 2 mps 759 mmHg 82%

    26 June, Wednesday

    Time Temperature Precipitation Wind Pressure Humidity
    00:00 +17°C° 0 mm 2 mps 758 mmHg 83%
    01:00 +16°C° 0 mm 2 mps 758 mmHg 84%
    02:00 +16°C° 0 mm 2 mps 758 mmHg 85%
    03:00 +16°C° 0 mm 2 mps 758 mmHg 85%
    04:00 +16°C° 0 mm 1 mps 758 mmHg 85%
    05:00 +16°C° 0 mm 1 mps 758 mmHg 84%
    06:00 +19°C° 0 mm 1 mps 757 mmHg 79%
    07:00 +20°C° 0 mm 2 mps 757 mmHg 73%
    08:00 +21°C° 0 mm 2 mps 757 mmHg 67%
    09:00 +23°C° 0 mm 2 mps 757 mmHg 63%
    10:00 +24°C° 0 mm 3 mps 756 mmHg 59%
    11:00 +25°C° 0 mm 4 mps 756 mmHg 55%
    12:00 +26°C° 0.1 mm 4 mps 756 mmHg 55%
    13:00 +26°C° 0.1 mm 4 mps 755 mmHg 55%
    14:00 +26°C° 0.1 mm 4 mps 755 mmHg 55%
    15:00 +23°C° 0.3 mm 4 mps 754 mmHg 64%
    16:00 +22°C° 0.3 mm 3 mps 754 mmHg 72%
    17:00 +20°C° 0.3 mm 2 mps 754 mmHg 81%
    18:00 +19°C° 0 mm 2 mps 754 mmHg 82%
    19:00 +19°C° 0 mm 2 mps 754 mmHg 83%
    20:00 +18°C° 0 mm 2 mps 754 mmHg 83%
    21:00 +17°C° 0 mm 2 mps 754 mmHg 83%
    22:00 +16°C° 0 mm 3 mps 754 mmHg 82%
    23:00 +14°C° 0 mm 3 mps 754 mmHg 81%
    Show more